Weather History for Tomahawk, WI

Change the Weather History Date:

Wednesday, March 13, 2013

  Actual Average (KRHI) Record (KRHI)
Temperature  
Mean Temperature 18 °F 26 °F  
Max Temperature 30 °F 36 °F 67 °F (1995)
Min Temperature 6 °F 16 °F -19 °F (1926)
Degree Days  
Heating Degree Days 47 39  
Month to date heating degree days 543  
Since 1 July heating degree days 7165  
Cooling Degree Days 0 0  
Month to date cooling degree days 0  
Year to date cooling degree days 0  
Moisture  
Dew Point 8 °F    
Average Humidity 64    
Maximum Humidity 93    
Minimum Humidity 32    
Precipitation  
Precipitation 0.00 in 0.04 in 0.91 in (2006)
Month to date precipitation 0.57  
Year to date precipitation 2.61  
Snow  
Snow 0.00 in - 8.00 in (1940)
Month to date snowfall  
Since 1 July snowfall  
Snow Depth -    
Sea Level Pressure  
Sea Level Pressure 30.14 in    
Wind  
Wind Speed 7 mph (WNW)    
Max Wind Speed 13 mph    
Max Gust Speed 21 mph    
Visibility 9 miles    
Events Snow    
T = Trace of Precipitation, MM = Missing Value Source: NWS Daily Summary

Daily Weather History Graph

Daily Weather History Graph

Search for Another Location

Airport:

Trip Planner

Search our weather history database for the weather conditions in past years. The results will help you decide how hot, cold, wet, or windy it might be!

Date:

Astronomy

Mar. 13, 2013 Rise Set
Actual Time 7:15 AM CDT 7:02 PM CDT
Civil Twilight 6:45 AM CDT 7:32 PM CDT
Nautical Twilight 6:11 AM CDT 8:06 PM CDT
Astronomical Twilight 5:36 AM CDT 8:41 PM CDT
Moon 7:47 AM CDT (3/13) 9:28 PM CDT (3/13)
Length of Visible Light 12h 46m
Length of Day
11h 47m
Waxing Crescent, 4% of the Moon is Illuminated
Mar 13
Waxing Crescent
Mar 19
First Quarter
Mar 27
Full
Apr 2
Last Quarter
Apr 10
New

Hourly Weather History & Observations

Time (CDT) Temp. Windchill Dew Point Humidity Pressure Visibility Wind Dir Wind Speed Gust Speed Precip Events Conditions
12:35 AM 19.4 °F 9.5 °F 14.0 °F 80% 29.99 in 3.0 mi NNW 8.1 mph - N/A Snow Light Snow
12:55 AM 17.6 °F 6.4 °F 14.0 °F 86% 29.99 in 3.0 mi NW 9.2 mph - N/A Snow Light Snow
1:15 AM 17.6 °F 9.3 °F 14.0 °F 86% 29.99 in 4.0 mi NW 5.8 mph - N/A Snow Light Snow
1:35 AM 17.6 °F 7.3 °F 14.0 °F 86% 30.00 in 4.0 mi NNW 8.1 mph - N/A Snow Light Snow
1:55 AM 17.6 °F 9.3 °F 12.2 °F 79% 30.00 in 5.0 mi NW 5.8 mph - N/A   Haze
2:15 AM 17.6 °F 10.7 °F 12.2 °F 79% 30.01 in 5.0 mi NW 4.6 mph - N/A Snow Light Snow
2:35 AM 15.8 °F 8.6 °F 12.2 °F 86% 30.01 in 7.0 mi WNW 4.6 mph - N/A Snow Light Snow
2:55 AM 14.0 °F 5.1 °F 12.2 °F 93% 30.02 in 10.0 mi WNW 5.8 mph - N/A   Scattered Clouds
3:15 AM 14.0 °F 5.1 °F 10.4 °F 86% 30.02 in 10.0 mi West 5.8 mph - N/A   Mostly Cloudy
3:55 AM 14.0 °F 3.9 °F 10.4 °F 86% 30.03 in 10.0 mi WNW 6.9 mph - N/A   Scattered Clouds
4:15 AM 14.0 °F 3.9 °F 10.4 °F 86% 30.04 in 10.0 mi WNW 6.9 mph - N/A   Scattered Clouds
4:35 AM 12.2 °F 1.7 °F 10.4 °F 92% 30.04 in 10.0 mi WNW 6.9 mph - N/A   Clear
4:55 AM 14.0 °F 5.1 °F 10.4 °F 86% 30.05 in 10.0 mi West 5.8 mph - N/A   Mostly Cloudy
5:15 AM 12.2 °F 2.9 °F 8.6 °F 85% 30.05 in 10.0 mi WNW 5.8 mph - N/A   Overcast
5:35 AM 12.2 °F 4.3 °F 8.6 °F 85% 30.07 in 10.0 mi WNW 4.6 mph - N/A   Mostly Cloudy
5:55 AM 12.2 °F 2.9 °F 8.6 °F 85% 30.08 in 10.0 mi WNW 5.8 mph - N/A   Mostly Cloudy
6:15 AM 12.2 °F 4.3 °F 8.6 °F 85% 30.08 in 10.0 mi WNW 4.6 mph - N/A   Overcast
6:35 AM 12.2 °F 4.3 °F 8.6 °F 85% 30.08 in 10.0 mi WNW 4.6 mph - N/A   Overcast
6:55 AM 12.2 °F 2.9 °F 6.8 °F 79% 30.10 in 10.0 mi West 5.8 mph - N/A   Scattered Clouds
7:15 AM 10.4 °F -0.4 °F 5.0 °F 79% 30.11 in 10.0 mi West 6.9 mph - N/A   Scattered Clouds
7:35 AM 10.4 °F 0.8 °F 5.0 °F 79% 30.11 in 10.0 mi West 5.8 mph - N/A   Scattered Clouds
7:55 AM 10.4 °F 0.8 °F 5.0 °F 79% 30.12 in 10.0 mi WNW 5.8 mph - N/A   Clear
8:15 AM 10.4 °F 0.8 °F 5.0 °F 79% 30.12 in 10.0 mi WNW 5.8 mph - N/A   Clear
8:35 AM 12.2 °F 1.7 °F 6.8 °F 79% 30.14 in 10.0 mi WNW 6.9 mph - N/A   Clear
8:55 AM 14.0 °F 2.9 °F 8.6 °F 79% 30.15 in 10.0 mi NW 8.1 mph - N/A   Clear
9:15 AM 17.6 °F 6.4 °F 8.6 °F 68% 30.15 in 10.0 mi WNW 9.2 mph - N/A   Clear
9:35 AM 19.4 °F 7.2 °F 8.6 °F 63% 30.16 in 10.0 mi NW 11.5 mph - N/A   Clear
9:55 AM 19.4 °F 8.6 °F 8.6 °F 63% 30.17 in 7.0 mi NNW 9.2 mph 20.7 mph N/A Snow Light Snow
10:15 AM 21.2 °F 9.5 °F 8.6 °F 58% 30.18 in 10.0 mi NW 11.5 mph 19.6 mph N/A   Clear
10:35 AM 21.2 °F 10.1 °F 8.6 °F 58% 30.18 in 10.0 mi NW 10.4 mph 17.3 mph N/A   Clear
10:55 AM 21.2 °F 8.9 °F 8.6 °F 58% 30.19 in 10.0 mi NNW 12.7 mph 18.4 mph N/A   Clear
11:15 AM 23.0 °F 13.1 °F 8.6 °F 54% 30.19 in 10.0 mi NW 9.2 mph - N/A   Clear
11:35 AM 24.8 °F 15.3 °F 6.8 °F 46% 30.19 in 10.0 mi NNW 9.2 mph - N/A   Clear
11:55 AM 24.8 °F 13.4 °F 5.0 °F 43% 30.19 in 10.0 mi NW 12.7 mph 18.4 mph N/A   Clear
12:15 PM 24.8 °F 14.6 °F 5.0 °F 43% 30.19 in 10.0 mi NNW 10.4 mph 20.7 mph N/A   Clear
12:35 PM 26.6 °F 19.1 °F 8.6 °F 47% 30.19 in 10.0 mi NNW 6.9 mph - N/A   Clear
12:55 PM 26.6 °F 16.2 °F 5.0 °F 40% 30.19 in 10.0 mi NNW 11.5 mph 16.1 mph N/A   Clear
1:15 PM 28.4 °F 18.0 °F 8.6 °F 43% 30.19 in 10.0 mi WNW 12.7 mph 20.7 mph N/A   Clear
1:35 PM 28.4 °F 19.1 °F 5.0 °F 37% 30.19 in 10.0 mi NW 10.4 mph 17.3 mph N/A   Clear
1:55 PM 28.4 °F 19.1 °F 5.0 °F 37% 30.19 in 10.0 mi NW 10.4 mph 16.1 mph N/A   Clear
2:15 PM 28.4 °F 18.5 °F 5.0 °F 37% 30.19 in 10.0 mi WNW 11.5 mph 16.1 mph N/A   Clear
2:35 PM 30.2 °F 21.3 °F 5.0 °F 34% 30.19 in 10.0 mi West 10.4 mph - N/A   Clear
2:55 PM 30.2 °F 22.6 °F 3.2 °F 32% 30.19 in 10.0 mi NW 8.1 mph - N/A   Clear
3:15 PM 30.2 °F 22.6 °F 5.0 °F 34% 30.19 in 10.0 mi NW 8.1 mph - N/A   Clear
3:35 PM 30.2 °F 21.3 °F 3.2 °F 32% 30.19 in 10.0 mi NNW 10.4 mph 16.1 mph N/A   Clear
3:55 PM 30.2 °F 20.2 °F 5.0 °F 34% 30.19 in 10.0 mi NW 12.7 mph 17.3 mph N/A   Clear
4:15 PM 30.2 °F 21.9 °F 5.0 °F 34% 30.19 in 10.0 mi NW 9.2 mph - N/A   Clear
4:35 PM 30.2 °F 23.4 °F 6.8 °F 37% 30.19 in 10.0 mi West 6.9 mph - N/A   Clear
4:55 PM 30.2 °F 21.9 °F 3.2 °F 32% 30.19 in 10.0 mi WNW 9.2 mph - N/A   Clear
5:15 PM 30.2 °F 21.3 °F 5.0 °F 34% 30.20 in 10.0 mi WNW 10.4 mph - N/A   Clear
5:35 PM 30.2 °F 21.9 °F 3.2 °F 32% 30.20 in 10.0 mi NW 9.2 mph - N/A   Clear
5:55 PM 30.2 °F 24.3 °F 5.0 °F 34% 30.19 in 10.0 mi West 5.8 mph - N/A   Clear
6:15 PM 30.2 °F 26.7 °F 5.0 °F 34% 30.19 in 10.0 mi WNW 3.5 mph - N/A   Clear
6:35 PM 28.4 °F 23.3 °F 5.0 °F 37% 30.19 in 10.0 mi West 4.6 mph - N/A   Clear
6:55 PM 28.4 °F - 6.8 °F 40% 30.19 in 10.0 mi Calm Calm - N/A   Clear
7:15 PM 26.6 °F - 8.6 °F 47% 30.20 in 10.0 mi Calm Calm - N/A   Clear
7:35 PM 26.6 °F - 8.6 °F 47% 30.20 in 10.0 mi Calm Calm - N/A   Clear
7:55 PM 21.2 °F - 10.4 °F 63% 30.20 in 10.0 mi Calm Calm - N/A   Clear
8:15 PM 19.4 °F - 8.6 °F 63% 30.19 in 10.0 mi Calm Calm - N/A   Clear
8:35 PM 19.4 °F - 8.6 °F 63% 30.19 in 10.0 mi Calm Calm - N/A   Clear
8:55 PM 17.6 °F - 10.4 °F 73% 30.20 in 10.0 mi Calm Calm - N/A   Clear
9:15 PM 14.0 °F - 8.6 °F 79% 30.20 in 10.0 mi Calm Calm - N/A   Clear
9:35 PM 14.0 °F - 10.4 °F 86% 30.21 in 10.0 mi Calm Calm - N/A   Clear
9:55 PM 12.2 °F - 8.6 °F 85% 30.21 in 10.0 mi Calm Calm - N/A   Clear
10:15 PM 10.4 °F - 6.8 °F 85% 30.21 in 10.0 mi Calm Calm - N/A   Clear
10:35 PM 10.4 °F - 6.8 °F 85% 30.21 in 10.0 mi Calm Calm - N/A   Clear
10:55 PM 6.8 °F - 3.2 °F 85% 30.21 in 10.0 mi Calm Calm - N/A   Clear
11:15 PM 10.4 °F - 6.8 °F 85% 30.20 in 10.0 mi Calm Calm - N/A   Clear
11:35 PM 10.4 °F - 6.8 °F 85% 30.21 in 10.0 mi Calm Calm - N/A   Clear
11:55 PM 14.0 °F 8.2 °F 8.6 °F 79% 30.21 in 10.0 mi WSW 3.5 mph - N/A   Clear